Home > Time Zones > World Clock > Weather > Egypt > Cairo > Past weeks

Flag for Egypt Weather past 2 weeks in Cairo, Egypt

Now
84 °F

Sunny.


Feels Like: 81 °F
Forecast: 61 / 96 °F
Wind: 8 mph from Northwest

Location: Cairo Airport

Current Time: Apr 19, 2015 at 5:15:54 PM

Latest Report: Apr 19, 2015 at 4:30 PM


Visibility: 10 mi

Pressure: 29.98 "Hg

Humidity: 20%

Dew point: 39 °F

Location of CairoLocation

Historic Weather in Cairo — Graph

°F

Cairo temperature yesterday

Maximum temperature yesterday: 79 °F (at 2:30 PM)
Minimum temperature yesterday: 55 °F (at 5:00 AM)
Average temperature yesterday: 68 °F

Past Weeks' High & Low Weather Summary

 TemperatureHumidityPressure
High100 °F (Apr 8, 1:30 PM)94% (Apr 14, 4:30 AM)30.33 "Hg (Apr 14, 4:30 AM)
Low52 °F (Apr 11, 6:00 AM)5% (Apr 8, 3:00 PM)29.62 "Hg (Apr 8, 5:00 PM)
Average67 °F48%30.04 "Hg
* Reported Apr 4 4:00 PM — Apr 19 4:00 PM, Cairo, Weather by CustomWeather, © 2015

Note: Actual official high and low records may vary slightly from our data, if they occured in-between our weather recording intervals... More about our weather records

Advertising

Cairo weather history for previous 24 hours

 ConditionsComfort  
Time TempWeatherWind HumidityBarometerVisibility
4:00 PM
Sun, Apr 19
84 °FSunny.8 mph18%30.01 "Hg10 mi
3:30 PM86 °FSunny.6 mph17%30.01 "Hg10 mi
2:30 PM84 °FSunny.6 mph13%30.01 "Hg10 mi
2:00 PM84 °FSunny.6 mph13%30.04 "Hg10 mi
1:30 PM84 °FSunny.3 mph13%30.04 "Hg10 mi
1:00 PM84 °FSunny.3 mph13%30.04 "Hg10 mi
12:30 PM82 °FSunny.5 mph14%30.07 "Hg10 mi
12:00 PM82 °FSunny.6 mph15%30.07 "Hg10 mi
11:30 AM81 °FSunny.6 mph16%30.09 "Hg10 mi
11:00 AM79 °FSunny.6 mph17%30.09 "Hg10 mi
10:30 AM77 °FSunny.7 mph17%30.09 "Hg10 mi
10:00 AM75 °FSunny.7 mph19%30.09 "Hg10 mi
9:30 AM73 °FSunny.6 mph22%30.09 "Hg10 mi
9:00 AM72 °FSunny.8 mph23%30.12 "Hg10 mi
8:30 AM70 °FSunny.7 mph29%30.12 "Hg10 mi
8:00 AM66 °FSunny.6 mph32%30.12 "Hg10 mi
7:30 AM64 °FClear.6 mph37%30.09 "Hg4 mi
7:00 AM63 °FClear.5 mph39%30.09 "Hg4 mi
6:30 AM59 °FClear.No wind45%30.09 "Hg4 mi
6:00 AM57 °FClear.No wind48%30.09 "Hg4 mi
5:30 AM57 °FClear.No wind48%30.09 "Hg4 mi
5:00 AM59 °FClear.7 mph48%30.09 "Hg4 mi
4:30 AM57 °FClear.3 mph48%30.09 "Hg4 mi
4:00 AM57 °FClear.3 mph48%30.09 "Hg4 mi
3:30 AM57 °FClear.5 mph48%30.09 "Hg4 mi
3:00 AM61 °FClear.5 mph48%30.09 "Hg10 mi
2:30 AM63 °FClear.6 mph45%30.09 "Hg10 mi
2:00 AM63 °FClear.6 mph45%30.09 "Hg10 mi
1:30 AM63 °FClear.6 mph39%30.09 "Hg10 mi
1:00 AM63 °FClear.6 mph39%30.12 "Hg10 mi
12:30 AM63 °FClear.5 mph45%30.12 "Hg10 mi
12:00 AM64 °FClear.6 mph46%30.12 "Hg10 mi
11:30 PM
Sat, Apr 18
66 °FClear.6 mph46%30.15 "Hg10 mi
11:00 PM66 °FClear.6 mph46%30.15 "Hg10 mi
10:00 PM66 °FClear.12 mph46%30.15 "Hg10 mi
9:00 PM68 °FClear.12 mph53%30.15 "Hg10 mi
8:00 PM73 °FClear.6 mph36%30.15 "Hg10 mi
7:30 PM75 °FClear.8 mph31%30.12 "Hg10 mi
7:00 PM75 °FClear.8 mph31%30.12 "Hg10 mi
6:00 PM77 °FSunny.9 mph30%30.12 "Hg10 mi
5:30 PM77 °FSunny.7 mph30%30.12 "Hg10 mi
5:00 PM79 °FSunny.5 mph28%30.12 "Hg10 mi
Weather by CustomWeather, © 2015

See weather overviewHow to use our weather pages